RCTPPKMJ

Guest
Details From RCTP - Taipei Chiang Kai Shek Intl
To PKMJ - Marshall Islands Intl
Flight Number -
Tags Generated
Created
Modified
Stats Distance 3,062 nm / 5,671 km
Max Altitude 0 ft / 0 m
Waypoints 5
Social Downloads 2
Likes 0
Share VATSIM

Download

Looking for another format? Having issues loading an existing format? Contact us
Advertisement - Login to hide

Notes

Generated

Route

RCTP BETTY JELNU R2385 PKMJ

ID Type Via Altitude Latitude Longitude Leg Dist Tot Dist Heading (true) Name
O RCTP APT - 0 ft / 0 m 25.06173˚ 121.22370˚ - 0 nm - -
BETTY FIX - 0 ft / 0 m 24.20559˚ 125.30107˚ 228 nm 228 nm 102° / 104° -
JELNU FIX - 0 ft / 0 m 8.62333˚ 168.09317˚ 2623 nm 2851 nm 103° / 116° -
R2385 FIX - 0 ft / 0 m 7.06216˚ 171.26144˚ 210 nm 3062 nm 116° / 117° -
O PKMJ APT - 0 ft / 0 m 7.06216˚ 171.26144˚ 0 nm 3062 nm 0° / 180° -

Altitude Profile

Advertisement - Login to hide

Weather


0- 5 10 15 20 25 30 35+ Temperature / ° C

Clouds and Precipitation
Forecast for 2018-05-28 00:00 UTC. Updated 9 hours ago

Ground ~20,000 ft ~40,000 ft Winds

RCTP

Details ICAO RCTP (TPE)
Name Taiwan Taoyuan International
Region Republic of China (Taiwan)
Timezone Asia/Taipei (UTC+8.0)
Stats Elevation 106 ft / 32 m (AMSL)
Location 25.077731° 121.232823°
Runways 2
Magnetic Variation 4.483° W

METAR

Not found

TAF

TAF RCTP 272300Z 2800/2906 22005KT 9999 FEW020 BECMG 2802/2804 33005KT TEMPO 2807/2813 02005KT BECMG 2813/2815 23005KT FEW015 BKN032 BECMG 2901/2903 33005KT

Decode

Departure Runways

ID Width Length Bearing (true) Bearing (mag) Surface Threshold Offset Overrun Length
05 197 ft / 60 m 12,038 ft / 3,669 m 49.17° 53.65° Concrete 0 ft / 0 m 393 ft / 120 m
06 197 ft / 60 m 11,008 ft / 3,355 m 49.12° 53.60° Concrete 0 ft / 0 m 450 ft / 137 m
23 197 ft / 60 m 12,038 ft / 3,669 m 229.18° 233.66° Concrete 0 ft / 0 m 393 ft / 120 m
24 197 ft / 60 m 11,008 ft / 3,355 m 229.13° 233.61° Concrete 0 ft / 0 m 550 ft / 168 m

PKMJ

Details ICAO PKMJ (MAJ)
Name MARSHALL ISLANDS INTL
Region Marshall Islands
Timezone Pacific/Majuro (UTC+12.0)
Stats Elevation 6 ft / 2 m (AMSL)
Location 7.064760° 171.272023°
Runways 1
Magnetic Variation 8.436° E

METAR

Not found

TAF

TAF PKMJ 272336Z 2800/2824 10011KT P6SM VCTS SCT016CB BKN045 OVC110 TEMPO 2800/2803 10015G25KT 2SM +SHRA BKN015 OVC025 FM280300 09013KT P6SM VCSH SCT017 SCT050 BKN120

Decode

Destination Runways

ID Width Length Bearing (true) Bearing (mag) Surface Threshold Offset Overrun Length
07 150 ft / 46 m 7,898 ft / 2,407 m 76.08° 67.64° Asphalt 0 ft / 0 m 200 ft / 61 m
25 150 ft / 46 m 7,898 ft / 2,407 m 256.08° 247.64° Asphalt 0 ft / 0 m 200 ft / 61 m

Popular Alternatives